sat.trackr.live / text

‹ back to catalog

STARLINK-2612

NORAD 48379 · 2021-038AC

PAYLOAD ACTIVE UNKNOWN

§ Identity

Operator
Country
US
Launch date
2021-05-04
Launch site
AFETR
Launch vehicle
Mass (kg)
RCS (m²)

Purposes: comms

External: N2YO · Heavens-Above · Gunter

§ Orbital elements

Epoch: 2026-05-24T23:27:03.217248Z

Period
94.01 min
Inclination
53.1604°
Eccentricity
0.0001152
Mean motion
15.31714869 rev/d
Perigee alt
469.9 km
Apogee alt
471.5 km
Semi-major
6,848.8 km
B*
6.0043e-5
RAAN
350.9360°
Arg perigee
75.3411°
Mean anomaly
284.7718°
Rev number
27,894

§ Raw data

STARLINK-26121 48379U 21038AC  26144.97712057  .00001499  00000+0  60043-4 0  99992 48379  53.1604 350.9360 0001152  75.3411 284.7718 15.31714869278940

JSON: /api/v1/satellites/48379 · /tle

For live sub-satellite position, see the globe view (requires WebGL).

§ Visibility from observer

Set your observer location to see the next 7 days of passes ≥ 10°. The values pass through the URL so the page stays shareable.

No JS? Fill the form by hand. The geolocation button needs JavaScript.